Hourly Weather Allan

Today, 25 November, Wednesday

Time Temperature Precipitation Wind Pressure Humidity
00:00 -9°C° 0 mm 4 mps 702 mmHg 86%
01:00 -8°C° 0 mm 4 mps 702 mmHg 86%
02:00 -8°C° 0 mm 4 mps 701 mmHg 85%
03:00 -5°C° 0 mm 4 mps 701 mmHg 85%
04:00 -4°C° 0 mm 4 mps 700 mmHg 84%
05:00 -4°C° 0 mm 5 mps 700 mmHg 84%
06:00 -4°C° 0 mm 4 mps 700 mmHg 85%
07:00 -4°C° 0 mm 4 mps 700 mmHg 87%
08:00 -4°C° 0 mm 4 mps 700 mmHg 88%
09:00 -7°C° 0 mm 5 mps 700 mmHg 89%
10:00 -9°C° 0 mm 6 mps 700 mmHg 89%
11:00 -11°C° 0 mm 6 mps 701 mmHg 90%
12:00 -9°C° 0 mm 6 mps 702 mmHg 91%
13:00 -7°C° 0 mm 5 mps 703 mmHg 92%
14:00 -6°C° 0 mm 5 mps 703 mmHg 93%
15:00 -5°C° 0 mm 5 mps 704 mmHg 91%
16:00 -4°C° 0 mm 6 mps 705 mmHg 90%
17:00 -4°C° 0 mm 6 mps 706 mmHg 89%
18:00 -5°C° 0 mm 6 mps 706 mmHg 90%
19:00 -7°C° 0 mm 5 mps 706 mmHg 91%
20:00 -10°C° 0 mm 5 mps 706 mmHg 92%
21:00 -11°C° 0 mm 5 mps 707 mmHg 92%
22:00 -11°C° 0 mm 4 mps 707 mmHg 92%
23:00 -12°C° 0 mm 4 mps 707 mmHg 91%

Tomorrow, 26 November, Thursday

Time Temperature Precipitation Wind Pressure Humidity
00:00 -12°C° 0 mm 5 mps 707 mmHg 89%
01:00 -12°C° 0 mm 5 mps 707 mmHg 87%
02:00 -11°C° 0 mm 5 mps 707 mmHg 85%
03:00 -10°C° 0.3 mm 5 mps 707 mmHg 88%
04:00 -9°C° 0.3 mm 6 mps 707 mmHg 91%
05:00 -8°C° 0.3 mm 6 mps 707 mmHg 94%
06:00 -8°C° 0.1 mm 5 mps 707 mmHg 94%
07:00 -10°C° 0.1 mm 5 mps 707 mmHg 93%
08:00 -11°C° 0.1 mm 5 mps 708 mmHg 92%
09:00 -10°C° 0 mm 4 mps 708 mmHg 92%
10:00 -11°C° 0 mm 4 mps 709 mmHg 92%
11:00 -12°C° 0 mm 4 mps 710 mmHg 92%
12:00 -12°C° 0 mm 4 mps 710 mmHg 92%
13:00 -12°C° 0 mm 4 mps 711 mmHg 92%
14:00 -12°C° 0 mm 3 mps 711 mmHg 93%
15:00 -13°C° 0 mm 3 mps 711 mmHg 92%
16:00 -14°C° 0 mm 3 mps 711 mmHg 92%
17:00 -15°C° 0 mm 3 mps 711 mmHg 92%
18:00 -15°C° 0 mm 3 mps 711 mmHg 92%
19:00 -14°C° 0 mm 3 mps 711 mmHg 92%
20:00 -14°C° 0 mm 3 mps 711 mmHg 92%
21:00 -14°C° 0 mm 4 mps 710 mmHg 92%
22:00 -11°C° 0 mm 4 mps 710 mmHg 92%
23:00 -10°C° 0 mm 4 mps 710 mmHg 91%

Day after tomorrow, 27 November, Friday

Time Temperature Precipitation Wind Pressure Humidity
00:00 -10°C° 0 mm 5 mps 709 mmHg 89%
01:00 -8°C° 0 mm 5 mps 709 mmHg 87%
02:00 -8°C° 0 mm 5 mps 709 mmHg 85%
03:00 -7°C° 0 mm 5 mps 709 mmHg 84%
04:00 -7°C° 0 mm 5 mps 708 mmHg 83%
05:00 -6°C° 0 mm 6 mps 708 mmHg 82%
06:00 -6°C° 0 mm 5 mps 708 mmHg 82%
07:00 -7°C° 0 mm 5 mps 708 mmHg 83%
08:00 -7°C° 0 mm 5 mps 708 mmHg 84%
09:00 -6°C° 0 mm 5 mps 709 mmHg 84%
10:00 -5°C° 0 mm 4 mps 709 mmHg 84%
11:00 -5°C° 0 mm 4 mps 709 mmHg 85%
12:00 -5°C° 0 mm 5 mps 709 mmHg 85%
13:00 -5°C° 0 mm 5 mps 709 mmHg 85%
14:00 -5°C° 0 mm 5 mps 709 mmHg 85%
15:00 -6°C° 0 mm 5 mps 710 mmHg 86%
16:00 -5°C° 0 mm 4 mps 710 mmHg 86%
17:00 -7°C° 0 mm 4 mps 710 mmHg 86%
18:00 -7°C° 0 mm 4 mps 711 mmHg 85%
19:00 -8°C° 0 mm 4 mps 711 mmHg 84%
20:00 -8°C° 0 mm 4 mps 711 mmHg 83%
21:00 -7°C° 0 mm 3 mps 711 mmHg 81%
22:00 -8°C° 0 mm 3 mps 711 mmHg 80%
23:00 -7°C° 0 mm 2 mps 711 mmHg 79%

28 November, Saturday

Time Temperature Precipitation Wind Pressure Humidity
00:00 -8°C° 0 mm 2 mps 711 mmHg 78%
01:00 -7°C° 0 mm 1 mps 711 mmHg 77%
02:00 -8°C° 0 mm 1 mps 710 mmHg 76%
03:00 -8°C° 0 mm 1 mps 710 mmHg 76%
04:00 -9°C° 0 mm 2 mps 709 mmHg 75%
05:00 -9°C° 0 mm 2 mps 709 mmHg 75%
06:00 -9°C° 0 mm 2 mps 708 mmHg 78%
07:00 -10°C° 0 mm 3 mps 708 mmHg 80%
08:00 -10°C° 0 mm 3 mps 708 mmHg 83%
09:00 -9°C° 0 mm 3 mps 707 mmHg 86%
10:00 -8°C° 0 mm 3 mps 706 mmHg 88%
11:00 -7°C° 0 mm 3 mps 706 mmHg 91%
12:00 -7°C° 0 mm 3 mps 706 mmHg 91%
13:00 -6°C° 0 mm 2 mps 705 mmHg 91%
14:00 -6°C° 0 mm 2 mps 705 mmHg 92%
15:00 -8°C° 0 mm 3 mps 706 mmHg 92%
16:00 -8°C° 0 mm 3 mps 707 mmHg 92%
17:00 -10°C° 0 mm 4 mps 708 mmHg 93%
18:00 -11°C° 0.2 mm 5 mps 710 mmHg 93%
19:00 -11°C° 0.2 mm 5 mps 712 mmHg 93%
20:00 -11°C° 0.2 mm 6 mps 714 mmHg 93%
21:00 -12°C° 0 mm 5 mps 715 mmHg 93%
22:00 -13°C° 0 mm 5 mps 717 mmHg 94%
23:00 -14°C° 0 mm 4 mps 719 mmHg 94%

29 November, Sunday

Time Temperature Precipitation Wind Pressure Humidity
00:00 -15°C° 0 mm 4 mps 719 mmHg 94%
01:00 -16°C° 0 mm 3 mps 720 mmHg 94%
02:00 -18°C° 0 mm 3 mps 721 mmHg 94%
03:00 -17°C° 0 mm 2 mps 722 mmHg 94%
04:00 -18°C° 0 mm 2 mps 722 mmHg 94%
05:00 -19°C° 0 mm 2 mps 723 mmHg 93%
06:00 -18°C° 0 mm 2 mps 723 mmHg 93%
07:00 -19°C° 0 mm 3 mps 724 mmHg 93%
08:00 -19°C° 0 mm 3 mps 724 mmHg 92%
09:00 -17°C° 0 mm 3 mps 724 mmHg 93%
10:00 -16°C° 0 mm 4 mps 724 mmHg 93%
11:00 -15°C° 0 mm 4 mps 724 mmHg 93%
12:00 -14°C° 0 mm 4 mps 724 mmHg 91%
13:00 -12°C° 0 mm 4 mps 724 mmHg 90%
14:00 -11°C° 0 mm 4 mps 723 mmHg 88%
15:00 -11°C° 0 mm 4 mps 723 mmHg 88%
16:00 -12°C° 0 mm 4 mps 722 mmHg 87%
17:00 -12°C° 0 mm 4 mps 722 mmHg 87%
18:00 -11°C° 0 mm 4 mps 721 mmHg 85%
19:00 -11°C° 0 mm 4 mps 721 mmHg 83%
20:00 -11°C° 0 mm 5 mps 721 mmHg 82%
21:00 -11°C° 0 mm 5 mps 720 mmHg 82%
22:00 -11°C° 0 mm 5 mps 719 mmHg 82%
23:00 -11°C° 0 mm 5 mps 719 mmHg 82%

30 November, Monday

Time Temperature Precipitation Wind Pressure Humidity
00:00 -11°C° 0 mm 5 mps 718 mmHg 81%
01:00 -9°C° 0 mm 4 mps 718 mmHg 80%
02:00 -9°C° 0 mm 4 mps 717 mmHg 80%
03:00 -10°C° 0 mm 4 mps 716 mmHg 80%
04:00 -10°C° 0 mm 4 mps 716 mmHg 79%
05:00 -9°C° 0 mm 3 mps 715 mmHg 79%
06:00 -10°C° 0 mm 4 mps 715 mmHg 78%
07:00 -9°C° 0 mm 4 mps 714 mmHg 77%
08:00 -9°C° 0 mm 4 mps 713 mmHg 76%
09:00 -8°C° 0 mm 4 mps 713 mmHg 75%
10:00 -6°C° 0 mm 5 mps 712 mmHg 74%
11:00 -5°C° 0 mm 5 mps 712 mmHg 72%
12:00 -4°C° 0 mm 5 mps 711 mmHg 72%
13:00 -2°C° 0 mm 5 mps 710 mmHg 71%
14:00 -2°C° 0 mm 5 mps 710 mmHg 70%
15:00 -2°C° 0 mm 5 mps 710 mmHg 70%
16:00 -4°C° 0 mm 5 mps 709 mmHg 70%
17:00 -4°C° 0 mm 6 mps 709 mmHg 69%
18:00 -5°C° 0 mm 6 mps 709 mmHg 71%
19:00 -5°C° 0 mm 6 mps 710 mmHg 74%
20:00 -5°C° 0 mm 6 mps 710 mmHg 76%
21:00 -6°C° 0 mm 5 mps 710 mmHg 77%
22:00 -6°C° 0 mm 5 mps 711 mmHg 79%
23:00 -6°C° 0 mm 5 mps 711 mmHg 80%
Show more